#timestamp,LO_Frequency,Hit,StdDev 
1673841615.6,286047000.9,P
1673841635.4,286047001.1,N
1673841655.3,286047000.5,N
1673841675.1,286047001.2,N
1673841676.0,286047001.2,N
1673841695.8,286046998.2,N
1673841715.7,286046998.6,N
1673841735.5,286046998.3,N
1673841755.3,286046999.3,N
1673841775.2,286047000.3,N
1673841795.9,286046998.2,N
1673841815.7,286047000.9,N
1673841835.6,286047000.3,N
1673841855.4,286047000.0,N
1673841875.2,286047000.2,N
1673841895.1,286047001.0,N
1673841896.0,286047001.0,N
1673841915.8,286047000.9,N
1673841935.6,286046998.2,N
1673841955.5,286047000.0,N
1673841975.3,286046999.0,N
1673841995.1,286046997.5,N
1673842015.9,286046997.2,N
1673842035.7,286046996.9,N
1673842055.5,286046997.0,N
1673842075.4,286046996.9,N
1673842095.2,286046996.6,N
1673842115.0,286046996.5,N
1673842115.9,286046996.5,N
1673842135.8,286046997.0,N
1673842155.6,286046998.5,N
1673842175.4,286046999.4,N
1673842195.3,286046999.5,N
1673842215.1,286046999.5,N
1673842216.0,286046999.5,N
1673842235.8,286046999.4,N
1673842255.7,286046996.9,N
1673842275.5,286046997.6,N
1673842295.3,286046997.2,N
1673842315.2,286046999.6,N
1673842335.9,286046999.3,N
1673842355.7,286046999.0,N
1673842375.6,286046997.2,N
1673842395.4,286046995.3,Y
1673842415.2,286046999.3,P
1673842435.1,286046996.6,P
1673842436.0,286046996.6,P
1673842455.8,286046999.6,N
1673842475.6,286046999.6,N
1673842495.5,286046998.7,N
1673842515.3,286047001.2,N
1673842535.1,286046998.1,N
1673842555.9,286046998.6,N
1673842575.7,286046998.9,N
1673842595.5,286046995.6,Y
1673842615.4,286047000.0,P
1673842635.2,286047002.8,P
1673842655.0,286047002.1,N
1673842655.9,286047002.1,N
1673842675.8,286046998.5,N
1673842695.6,286046998.6,N
1673842715.4,286046998.9,N
1673842735.3,286046996.9,N
1673842755.1,286046998.4,N
1673842775.8,286046999.1,N
1673842795.7,286046997.2,N
1673842815.5,286046999.4,N
1673842835.3,286046997.4,N
1673842855.2,286046996.9,N
1673842875.0,286046999.6,N
1673842875.9,286046999.6,N
1673842895.7,286046999.4,N
1673842915.6,286046996.7,N
1673842935.4,286046996.6,N
1673842955.2,286046999.5,N
1673842975.1,286046996.5,N
1673842976.0,286046996.5,N
1673842995.8,286046997.6,N
1673843015.6,286046995.0,N
1673843035.5,286046997.4,N
1673843055.3,286046995.7,N
1673843075.1,286046995.5,N
1673843095.9,286046995.0,N
1673843115.7,286046991.1,Y
1673843135.5,286046998.5,P
1673843155.4,286046998.9,P
1673843175.2,286046999.1,P
1673843195.0,286046991.2,Y
1673843196.0,286046991.2,P
1673843215.8,286046996.9,N
1673843235.6,286046999.3,N
1673843255.4,286046998.7,N
1673843275.3,286046998.8,N
1673843295.1,286047000.3,N
1673843315.8,286047001.0,N
1673843335.7,286046998.4,N
1673843355.5,286046999.6,N
1673843375.3,286046998.7,N
1673843395.2,286046998.3,N
1673843415.0,286047001.1,N
1673843415.9,286047011.9,Y
1673843435.8,286047000.4,P
1673843455.6,286047002.4,N
1673843475.4,286046999.7,N
1673843495.3,286047000.3,N
1673843515.1,286047002.5,N
1673843516.0,286047002.5,N
1673843535.8,286047004.0,N
1673843555.7,286047004.0,N
1673843575.5,286047001.8,N
1673843595.3,286047004.2,N
1673843615.2,286047002.1,N
1673843635.9,286047001.3,N
1673843655.7,286047001.3,N
1673843675.6,286047004.3,N
1673843695.4,286047004.4,N
1673843715.2,286047001.9,N
1673843735.1,286047002.6,N
1673843736.0,286047002.6,N
1673843755.8,286047002.6,N
1673843775.6,286047000.7,N
1673843795.5,286047001.1,N
1673843845.3,286046998.1,E
1673843855.2,286046999.9,N
1673843875.0,286047002.4,P
1673843875.9,286047002.4,N
1673843895.8,286047002.3,N
1673843915.6,286047001.4,N
1673843935.4,286047001.6,N
1673843955.3,286047003.9,Y
1673843975.1,286047001.3,P
1673843995.8,286046999.7,N
1673844015.7,286047000.5,N
1673844035.5,286046999.7,N
1673844055.3,286047000.1,N
1673844075.2,286047002.3,N
1673844095.0,286047002.8,N
1673844095.9,286047002.8,N
1673844115.7,286047000.7,N
1673844135.6,286047000.4,N
1673844155.4,286047000.8,N
1673844175.2,286047000.5,N
1673844195.1,286047002.3,N
1673844196.0,286047002.3,N
1673844215.8,286047002.1,N
1673844235.6,286047001.6,N
1673844255.5,286047001.9,N
1673844275.3,286047003.7,Y
1673844295.1,286047003.9,P
1673844315.9,286046999.8,N
1673844335.7,286047002.4,N
1673844355.5,286047001.9,N
1673844375.4,286047002.6,N
1673844395.2,286047002.3,N
1673844415.0,286047002.8,N
1673844415.9,286047002.8,N
1673844435.8,286047000.1,N
1673844455.6,286047001.8,N
1673844475.4,286047004.2,Y
1673844495.3,286046999.8,P
1673844515.1,286047000.6,N
1673844535.8,286047001.6,N
1673844555.7,286047000.6,N
1673844575.5,286047001.0,N
1673844595.3,286047002.8,Y
1673844615.2,286047000.9,P
1673844635.0,286047000.1,P
1673844635.9,286047000.1,N
1673844655.8,286047002.6,Y
1673844675.6,286046999.9,P
1673844695.4,286047002.1,P
1673844715.2,286047001.3,N
1673844735.1,286047002.6,Y
1673844736.0,286047002.6,P
1673844755.8,286047000.8,N
1673844775.7,286046998.2,N
1673844795.5,286046997.8,N
1673844815.3,286046995.5,N
1673844835.1,286046995.2,N
1673844855.9,286046994.6,N
1673844875.7,286046992.0,N
1673844895.5,286046994.2,N
1673844915.4,286046993.3,N
1673844935.2,286046995.7,N
1673844955.0,286046997.9,N
1673844955.9,286046997.9,N
1673844975.8,286046997.8,N
1673844995.6,286046996.9,N
1673845015.4,286046998.4,N
1673845035.3,286046997.4,N
1673845055.1,286046998.1,N
1673845075.8,286046998.7,N
1673845095.7,286046999.6,N
1673845115.5,286047000.7,N
1673845135.3,286046998.6,N
1673845155.2,286046997.4,N
1673845175.0,286046996.6,N
1673845175.9,286046996.6,N
1673845195.7,286046997.3,N
